{"data":{"norad_id":66887,"intl_designator":"2025-283K","name":"STARLINK-35925","alt_names":[],"object_type":"PAYLOAD","status":"ACTIVE","operator":null,"country":"US","launch_date":"2025-12-04","launch_site_code":"AFWTR","launch_vehicle":null,"mission":null,"orbit_class":"UNKNOWN","rcs_meters":null,"size_class":null,"mass_kg":null,"dimensions":null,"purposes":["comms"],"wikipedia_slug":null,"has_3d_model":false,"image_url":null,"decayed_at":null,"tle_current":{"epoch":"2026-05-25T04:00:03.998880Z","epoch_age_seconds":61469,"freshness":"FRESH","line1":"1 66887U 25283K   26145.16671295  .00062386  00000+0  18460-2 0  9995","line2":"2 66887  53.1592  28.9708 0001332  89.0005 237.6745 15.34336664  5850","mean_motion":15.34336664,"eccentricity":0.0001332,"inclination_deg":53.1592,"raan_deg":28.9708,"arg_perigee_deg":89.0005,"mean_anomaly_deg":237.6745,"bstar":0.001846,"rev_number":585,"period_min":93.851632030088,"perigee_km":461.98026962663,"apogee_km":463.8027196176,"semimajor_km":6841.0284946221,"source":"CELESTRAK","updated_at":"2026-05-25T13:38:21.379796Z"}}}